Time,TemperatureF,DewpointF,PressureIn,WindDirection,WindDirectionDegrees,WindSpeedMPH,WindSpeedGustMPH,Humidity,HourlyPrecipIn,Conditions,Clouds,dailyrainin,SoftwareType,DateUTC
2013-05-01 00:04:00,63.7,57.8,29.90,SSE,150,9.0,10.0,81,0.00,,---,0.00,VWS V14.00,2013-05-01 05:04:00,
2013-05-01 00:09:00,63.5,57.9,29.91,SSE,150,6.0,9.0,82,0.00,,---,0.00,VWS V14.00,2013-05-01 05:09:00,
2013-05-01 00:14:00,63.2,58.0,29.91,SSE,150,6.0,9.0,83,0.00,,---,0.00,VWS V14.00,2013-05-01 05:14:00,
2013-05-01 00:19:00,63.1,57.9,29.91,SSE,150,5.0,7.0,83,0.00,,---,0.00,VWS V14.00,2013-05-01 05:19:00,
2013-05-01 00:24:00,62.9,57.7,29.91,SSE,150,5.0,5.0,83,0.00,,---,0.00,VWS V14.00,2013-05-01 05:24:00,
2013-05-01 00:29:00,62.6,57.7,29.91,SSE,150,6.0,6.0,84,0.00,,---,0.00,VWS V14.00,2013-05-01 05:29:00,
2013-05-01 00:34:00,62.6,57.7,29.91,SSE,150,6.0,6.0,84,0.00,,---,0.00,VWS V14.00,2013-05-01 05:34:00,
2013-05-01 00:39:00,62.4,57.8,29.92,SSE,150,4.0,7.0,85,0.00,,---,0.00,VWS V14.00,2013-05-01 05:39:00,
2013-05-01 00:44:00,62.1,57.5,29.92,SSE,150,4.0,5.0,85,0.00,,---,0.00,VWS V14.00,2013-05-01 05:44:00,
2013-05-01 00:50:00,62.0,58.7,29.92,SSE,150,5.0,5.0,89,0.00,,---,0.00,VWS V14.00,2013-05-01 05:50:00,
2013-05-01 00:55:00,61.6,57.4,29.92,SSE,150,4.0,5.0,86,0.00,,---,0.00,VWS V14.00,2013-05-01 05:55:00,
2013-05-01 01:00:00,61.5,57.3,29.92,SSE,150,3.0,6.0,86,0.00,,---,0.00,VWS V14.00,2013-05-01 06:00:00,
2013-05-01 01:05:00,61.2,57.0,29.92,SSE,150,4.0,4.0,86,0.00,,---,0.00,VWS V14.00,2013-05-01 06:05:00,
2013-05-01 01:10:00,61.2,57.3,29.92,SSE,150,4.0,4.0,87,0.00,,---,0.00,VWS V14.00,2013-05-01 06:10:00,
2013-05-01 01:15:00,60.9,57.0,29.92,SSE,150,2.0,2.0,87,0.00,,---,0.00,VWS V14.00,2013-05-01 06:15:00,
2013-05-01 01:20:00,60.5,56.9,29.92,SSE,150,2.0,3.0,88,0.00,,---,0.00,VWS V14.00,2013-05-01 06:20:00,
2013-05-01 01:25:00,60.4,56.8,29.92,SSE,150,3.0,3.0,88,0.00,,---,0.00,VWS V14.00,2013-05-01 06:25:00,
2013-05-01 01:31:00,60.1,56.5,29.92,SSE,150,3.0,3.0,88,0.00,,---,0.00,VWS V14.00,2013-05-01 06:31:00,
2013-05-01 01:36:00,59.8,56.6,29.92,SSE,150,3.0,3.0,89,0.00,,---,0.00,VWS V14.00,2013-05-01 06:36:00,
2013-05-01 01:41:00,59.6,56.4,29.92,SSE,150,3.0,4.0,89,0.00,,---,0.00,VWS V14.00,2013-05-01 06:41:00,
2013-05-01 01:46:00,59.6,56.4,29.92,SSE,150,4.0,4.0,89,0.00,,---,0.00,VWS V14.00,2013-05-01 06:46:00,
2013-05-01 01:51:00,59.5,56.6,29.92,SSE,150,3.0,5.0,90,0.00,,---,0.00,VWS V14.00,2013-05-01 06:51:00,
2013-05-01 01:56:00,59.5,56.3,29.92,SSE,150,3.0,4.0,89,0.00,,---,0.00,VWS V14.00,2013-05-01 06:56:00,
2013-05-01 02:01:00,59.5,56.6,29.92,SSE,150,4.0,4.0,90,0.00,,---,0.00,VWS V14.00,2013-05-01 07:01:00,
2013-05-01 02:06:00,59.5,56.3,29.92,SSE,150,3.0,4.0,89,0.00,,---,0.00,VWS V14.00,2013-05-01 07:06:00,
2013-05-01 02:11:00,59.5,56.3,29.92,SSE,150,3.0,3.0,89,0.00,,---,0.00,VWS V14.00,2013-05-01 07:11:00,
2013-05-01 02:17:00,59.5,56.3,29.92,SSE,150,3.0,3.0,89,0.00,,---,0.00,VWS V14.00,2013-05-01 07:17:00,
2013-05-01 02:22:00,59.5,56.3,29.91,SSE,150,3.0,3.0,89,0.00,,---,0.00,VWS V14.00,2013-05-01 07:22:00,
2013-05-01 02:27:00,59.5,56.3,29.91,SSE,150,3.0,3.0,89,0.00,,---,0.00,VWS V14.00,2013-05-01 07:27:00,
2013-05-01 02:32:00,59.5,56.3,29.91,SSE,150,3.0,3.0,89,0.00,,---,0.00,VWS V14.00,2013-05-01 07:32:00,
2013-05-01 02:37:00,58.7,55.5,29.91,SSE,150,3.0,4.0,89,0.00,,---,0.00,VWS V14.00,2013-05-01 07:37:00,
2013-05-01 02:42:00,58.6,55.4,29.91,SSE,150,4.0,4.0,89,0.00,,---,0.00,VWS V14.00,2013-05-01 07:42:00,
2013-05-01 02:47:00,58.7,55.8,29.91,SSE,150,3.0,4.0,90,0.00,,---,0.00,VWS V14.00,2013-05-01 07:47:00,
2013-05-01 02:52:00,58.9,55.7,29.93,SSE,150,4.0,4.0,89,0.00,,---,0.00,VWS V14.00,2013-05-01 07:52:00,
2013-05-01 02:57:00,59.0,55.8,29.93,SSE,150,3.0,4.0,89,0.00,,---,0.00,VWS V14.00,2013-05-01 07:57:00,
2013-05-01 03:03:00,59.0,55.5,29.93,SSE,150,3.0,4.0,88,0.00,,---,0.00,VWS V14.00,2013-05-01 08:03:00,
2013-05-01 03:08:00,59.0,55.5,29.93,SSE,150,4.0,5.0,88,0.00,,---,0.00,VWS V14.00,2013-05-01 08:08:00,
2013-05-01 03:13:00,59.0,55.5,29.93,SSE,150,4.0,5.0,88,0.00,,---,0.00,VWS V14.00,2013-05-01 08:13:00,
2013-05-01 03:18:00,58.9,55.4,29.93,SSE,150,3.0,4.0,88,0.00,,---,0.00,VWS V14.00,2013-05-01 08:18:00,
2013-05-01 03:23:00,58.6,55.1,29.93,SSE,150,4.0,5.0,88,0.00,,---,0.00,VWS V14.00,2013-05-01 08:23:00,
2013-05-01 03:28:00,58.3,54.8,29.93,SSE,150,3.0,3.0,88,0.00,,---,0.00,VWS V14.00,2013-05-01 08:28:00,
2013-05-01 03:33:00,58.0,54.8,29.93,SSE,150,2.0,2.0,89,0.00,,---,0.00,VWS V14.00,2013-05-01 08:33:00,
2013-05-01 03:38:00,58.0,54.8,29.94,SSE,150,2.0,2.0,89,0.00,,---,0.00,VWS V14.00,2013-05-01 08:38:00,
2013-05-01 03:44:00,57.6,54.4,29.94,SSE,150,3.0,4.0,89,0.00,,---,0.00,VWS V14.00,2013-05-01 08:44:00,
2013-05-01 03:49:00,57.5,54.6,29.94,SSE,150,3.0,3.0,90,0.00,,---,0.00,VWS V14.00,2013-05-01 08:49:00,
2013-05-01 03:54:00,57.5,54.6,29.95,SSE,150,4.0,4.0,90,0.00,,---,0.00,VWS V14.00,2013-05-01 08:54:00,
2013-05-01 03:59:00,57.3,54.4,29.95,SSE,150,4.0,4.0,90,0.00,,---,0.00,VWS V14.00,2013-05-01 08:59:00,
2013-05-01 04:04:00,57.5,54.9,29.95,SSE,150,3.0,3.0,91,0.00,,---,0.00,VWS V14.00,2013-05-01 09:04:00,
2013-05-01 04:09:00,57.6,55.0,29.96,SSE,150,2.0,2.0,91,0.00,,---,0.00,VWS V14.00,2013-05-01 09:09:00,
2013-05-01 04:14:00,57.8,54.9,29.96,SSE,150,2.0,3.0,90,0.00,,---,0.00,VWS V14.00,2013-05-01 09:14:00,
2013-05-01 04:19:00,57.8,54.9,29.96,SSE,150,2.0,3.0,90,0.00,,---,0.00,VWS V14.00,2013-05-01 09:19:00,
2013-05-01 04:24:00,58.0,55.1,29.96,SSE,150,0.0,0.0,90,0.00,,---,0.00,VWS V14.00,2013-05-01 09:24:00,
2013-05-01 04:30:00,58.1,55.2,29.96,SSE,150,0.0,2.0,90,0.00,,---,0.00,VWS V14.00,2013-05-01 09:30:00,
2013-05-01 04:35:00,58.3,55.4,29.96,SSE,150,0.0,0.0,90,0.00,,---,0.00,VWS V14.00,2013-05-01 09:35:00,
2013-05-01 04:40:00,58.1,54.9,29.96,SSE,150,0.0,0.0,89,0.00,,---,0.00,VWS V14.00,2013-05-01 09:40:00,
2013-05-01 04:45:00,58.0,54.8,29.96,SSE,150,0.0,0.0,89,0.00,,---,0.00,VWS V14.00,2013-05-01 09:45:00,
2013-05-01 04:50:00,57.5,54.0,29.97,SSE,150,3.0,3.0,88,0.00,,---,0.00,VWS V14.00,2013-05-01 09:50:00,
2013-05-01 04:55:00,56.9,53.4,29.97,SSE,150,1.0,2.0,88,0.00,,---,0.00,VWS V14.00,2013-05-01 09:55:00,
2013-05-01 05:00:00,56.7,53.5,29.97,SSE,150,0.0,2.0,89,0.00,,---,0.00,VWS V14.00,2013-05-01 10:00:00,
2013-05-01 05:05:00,56.9,53.7,29.98,SSE,150,0.0,1.0,89,0.00,,---,0.00,VWS V14.00,2013-05-01 10:05:00,
2013-05-01 05:10:00,56.9,54.0,29.98,SSE,150,0.0,0.0,90,0.00,,---,0.00,VWS V14.00,2013-05-01 10:10:00,
2013-05-01 05:16:00,56.9,54.0,29.98,SSE,150,2.0,2.0,90,0.00,,---,0.00,VWS V14.00,2013-05-01 10:16:00,
2013-05-01 05:21:00,56.7,53.8,29.98,SSE,150,2.0,3.0,90,0.00,,---,0.00,VWS V14.00,2013-05-01 10:21:00,
2013-05-01 05:26:00,56.5,53.3,29.98,SSE,150,0.0,2.0,89,0.00,,---,0.00,VWS V14.00,2013-05-01 10:26:00,
2013-05-01 05:31:00,56.5,53.6,29.98,SSE,150,2.0,2.0,90,0.00,,---,0.00,VWS V14.00,2013-05-01 10:31:00,
2013-05-01 05:36:00,56.5,53.6,29.98,SSE,150,1.0,2.0,90,0.00,,---,0.00,VWS V14.00,2013-05-01 10:36:00,
2013-05-01 05:41:00,56.7,53.8,29.98,SSE,150,2.0,3.0,90,0.00,,---,0.00,VWS V14.00,2013-05-01 10:41:00,
2013-05-01 05:46:00,57.0,54.1,29.98,SSE,150,3.0,3.0,90,0.00,,---,0.00,VWS V14.00,2013-05-01 10:46:00,
2013-05-01 05:51:00,57.0,54.1,29.98,SSE,150,3.0,4.0,90,0.00,,---,0.00,VWS V14.00,2013-05-01 10:51:00,
2013-05-01 05:57:00,57.0,53.8,29.98,SSE,150,2.0,2.0,89,0.00,,---,0.00,VWS V14.00,2013-05-01 10:57:00,
2013-05-01 06:02:00,57.0,53.8,29.98,SSE,150,0.0,0.0,89,0.00,,---,0.00,VWS V14.00,2013-05-01 11:02:00,
2013-05-01 06:07:00,56.5,53.0,29.99,SSE,150,0.0,1.0,88,0.00,,---,0.00,VWS V14.00,2013-05-01 11:07:00,
2013-05-01 06:12:00,56.0,52.5,29.99,SSE,150,2.0,2.0,88,0.00,,---,0.00,VWS V14.00,2013-05-01 11:12:00,
2013-05-01 06:17:00,55.3,51.8,29.99,SSE,150,0.0,0.0,88,0.00,,---,0.00,VWS V14.00,2013-05-01 11:17:00,
2013-05-01 06:22:00,55.1,51.9,30.00,SSE,150,0.0,0.0,89,0.00,,---,0.00,VWS V14.00,2013-05-01 11:22:00,
2013-05-01 06:27:00,55.0,51.8,30.00,SSE,150,0.0,0.0,89,0.00,,---,0.00,VWS V14.00,2013-05-01 11:27:00,
2013-05-01 06:32:00,55.0,52.1,30.00,SSE,150,0.0,0.0,90,0.00,,---,0.00,VWS V14.00,2013-05-01 11:32:00,
2013-05-01 06:37:00,55.1,52.5,30.00,SSE,150,0.0,0.0,91,0.00,,---,0.00,VWS V14.00,2013-05-01 11:37:00,
2013-05-01 06:43:00,55.3,52.7,30.00,SSE,150,0.0,0.0,91,0.00,,---,0.00,VWS V14.00,2013-05-01 11:43:00,
2013-05-01 06:48:00,55.6,53.3,30.00,SSE,150,0.0,0.0,92,0.00,,---,0.00,VWS V14.00,2013-05-01 11:48:00,
2013-05-01 06:53:00,55.7,53.4,30.00,SSE,150,0.0,0.0,92,0.00,,---,0.00,VWS V14.00,2013-05-01 11:53:00,
2013-05-01 06:58:00,56.3,54.0,30.00,SSE,150,0.0,0.0,92,0.00,,---,0.00,VWS V14.00,2013-05-01 11:58:00,
2013-05-01 07:03:00,56.5,54.2,30.00,SSE,150,0.0,0.0,92,0.00,,---,0.00,VWS V14.00,2013-05-01 12:03:00,
2013-05-01 07:08:00,56.9,54.9,30.01,SSE,150,0.0,0.0,93,0.00,,---,0.00,VWS V14.00,2013-05-01 12:08:00,
2013-05-01 07:13:00,57.2,55.2,30.01,SSE,150,0.0,0.0,93,0.00,,---,0.00,VWS V14.00,2013-05-01 12:13:00,
2013-05-01 07:18:00,57.8,56.1,30.01,SSE,150,1.0,2.0,94,0.00,,---,0.00,VWS V14.00,2013-05-01 12:18:00,
2013-05-01 07:24:00,58.6,56.9,30.02,SSE,150,4.0,4.0,94,0.00,,---,0.00,VWS V14.00,2013-05-01 12:24:00,
2013-05-01 07:29:00,59.3,57.3,30.02,SSE,150,4.0,5.0,93,0.00,,---,0.00,VWS V14.00,2013-05-01 12:29:00,
2013-05-01 07:34:00,60.1,57.8,30.02,SSE,150,4.0,5.0,92,0.00,,---,0.00,VWS V14.00,2013-05-01 12:34:00,
2013-05-01 07:39:00,60.9,58.3,30.02,SSE,150,4.0,5.0,91,0.00,,---,0.00,VWS V14.00,2013-05-01 12:39:00,
2013-05-01 07:44:00,60.9,58.3,30.02,SSE,150,5.0,5.0,91,0.00,,---,0.00,VWS V14.00,2013-05-01 12:44:00,
2013-05-01 07:49:00,62.3,58.4,30.02,SSE,150,5.0,7.0,87,0.00,,---,0.00,VWS V14.00,2013-05-01 12:49:00,
2013-05-01 07:54:00,63.2,58.6,30.02,SSE,150,6.0,7.0,85,0.00,,---,0.00,VWS V14.00,2013-05-01 12:54:00,
2013-05-01 07:59:00,64.0,58.4,30.02,SSE,148,7.0,7.0,82,0.00,,---,0.00,VWS V14.00,2013-05-01 12:59:00,
2013-05-01 08:04:00,64.7,58.0,30.02,SE,142,5.0,7.0,79,0.00,,---,0.00,VWS V14.00,2013-05-01 13:04:00,
2013-05-01 08:10:00,65.5,57.7,30.02,SE,142,9.0,11.0,76,0.00,,---,0.00,VWS V14.00,2013-05-01 13:10:00,
2013-05-01 08:15:00,65.8,57.7,30.02,SE,141,7.0,10.0,75,0.00,,---,0.00,VWS V14.00,2013-05-01 13:15:00,
2013-05-01 08:20:00,66.3,57.8,30.03,SE,140,5.0,7.0,74,0.00,,---,0.00,VWS V14.00,2013-05-01 13:20:00,
2013-05-01 08:25:00,66.6,57.3,30.03,SE,140,7.0,9.0,72,0.00,,---,0.00,VWS V14.00,2013-05-01 13:25:00,
2013-05-01 08:30:00,66.9,57.2,30.03,SE,144,5.0,9.0,71,0.00,,---,0.00,VWS V14.00,2013-05-01 13:30:00,
2013-05-01 08:35:00,67.3,57.6,30.03,SSE,148,9.0,10.0,71,0.00,,---,0.00,VWS V14.00,2013-05-01 13:35:00,
2013-05-01 08:40:00,67.6,57.5,30.03,SSE,148,6.0,8.0,70,0.00,,---,0.00,VWS V14.00,2013-05-01 13:40:00,
2013-05-01 08:45:00,68.1,58.0,30.03,SSE,149,5.0,10.0,70,0.00,,---,0.00,VWS V14.00,2013-05-01 13:45:00,
2013-05-01 08:51:00,68.4,57.0,30.03,SSE,150,5.0,9.0,67,0.00,,---,0.00,VWS V14.00,2013-05-01 13:51:00,
2013-05-01 08:56:00,68.4,57.0,30.03,SSE,154,7.0,7.0,67,0.00,,---,0.00,VWS V14.00,2013-05-01 13:56:00,
2013-05-01 09:01:00,68.9,57.5,30.03,SSE,153,5.0,7.0,67,0.00,,---,0.00,VWS V14.00,2013-05-01 14:01:00,
2013-05-01 09:06:00,68.9,57.5,30.03,SSE,154,3.0,7.0,67,0.00,,---,0.00,VWS V14.00,2013-05-01 14:06:00,
2013-05-01 09:11:00,69.1,56.8,30.03,SSE,154,6.0,7.0,65,0.00,,---,0.00,VWS V14.00,2013-05-01 14:11:00,
2013-05-01 09:16:00,69.4,58.0,30.03,SSE,154,4.0,5.0,67,0.00,,---,0.00,VWS V14.00,2013-05-01 14:16:00,
2013-05-01 09:21:00,69.6,57.8,30.03,SSE,154,5.0,7.0,66,0.00,,---,0.00,VWS V14.00,2013-05-01 14:21:00,
2013-05-01 09:26:00,70.1,57.8,30.03,SSE,154,5.0,7.0,65,0.00,,---,0.00,VWS V14.00,2013-05-01 14:26:00,
2013-05-01 09:31:00,70.3,57.6,30.03,SSE,154,5.0,6.0,64,0.00,,---,0.00,VWS V14.00,2013-05-01 14:31:00,
2013-05-01 09:37:00,70.4,57.7,30.03,SSE,155,3.0,7.0,64,0.00,,---,0.00,VWS V14.00,2013-05-01 14:37:00,
2013-05-01 09:42:00,70.9,58.1,30.03,SSE,155,4.0,7.0,64,0.00,,---,0.00,VWS V14.00,2013-05-01 14:42:00,
2013-05-01 09:47:00,71.3,58.1,30.03,SSE,155,5.0,7.0,63,0.00,,---,0.00,VWS V14.00,2013-05-01 14:47:00,
2013-05-01 09:52:00,71.8,57.6,30.03,SSE,155,3.0,4.0,61,0.00,,---,0.00,VWS V14.00,2013-05-01 14:52:00,
2013-05-01 09:57:00,72.1,57.9,30.03,SSE,155,6.0,7.0,61,0.00,,---,0.00,VWS V14.00,2013-05-01 14:57:00,
2013-05-01 10:02:00,72.5,57.8,30.03,SSE,155,5.0,5.0,60,0.00,,---,0.00,VWS V14.00,2013-05-01 15:02:00,
2013-05-01 10:07:00,72.7,57.6,30.04,SSE,155,3.0,5.0,59,0.00,,---,0.00,VWS V14.00,2013-05-01 15:07:00,
2013-05-01 10:12:00,73.0,57.8,30.04,SSE,155,4.0,6.0,59,0.00,,---,0.00,VWS V14.00,2013-05-01 15:12:00,
2013-05-01 10:18:00,73.3,59.5,30.04,SSE,153,4.0,7.0,62,0.00,,---,0.00,VWS V14.00,2013-05-01 15:18:00,
2013-05-01 10:23:00,73.7,58.0,30.04,SSE,157,5.0,6.0,58,0.00,,---,0.00,VWS V14.00,2013-05-01 15:23:00,
2013-05-01 10:28:00,74.0,58.3,30.04,SSE,156,6.0,6.0,58,0.00,,---,0.00,VWS V14.00,2013-05-01 15:28:00,
2013-05-01 10:33:00,74.4,57.7,30.04,SSE,156,4.0,6.0,56,0.00,,---,0.00,VWS V14.00,2013-05-01 15:33:00,
2013-05-01 10:38:00,74.7,58.0,30.04,SSE,156,4.0,5.0,56,0.00,,---,0.00,VWS V14.00,2013-05-01 15:38:00,
2013-05-01 10:43:00,75.1,58.3,30.04,SSE,156,4.0,7.0,56,0.00,,---,0.00,VWS V14.00,2013-05-01 15:43:00,
2013-05-01 10:48:00,75.4,58.6,30.04,SSE,150,5.0,6.0,56,0.00,,---,0.00,VWS V14.00,2013-05-01 15:48:00,
2013-05-01 10:53:00,75.4,58.6,30.04,SSE,148,3.0,3.0,56,0.00,,---,0.00,VWS V14.00,2013-05-01 15:53:00,
2013-05-01 10:58:00,75.8,58.5,30.04,SSE,148,3.0,6.0,55,0.00,,---,0.00,VWS V14.00,2013-05-01 15:58:00,
2013-05-01 11:03:00,76.3,59.0,30.04,SSE,148,3.0,5.0,55,0.00,,---,0.00,VWS V14.00,2013-05-01 16:03:00,
2013-05-01 11:09:00,76.7,57.8,30.04,SSE,148,4.0,4.0,52,0.00,,---,0.00,VWS V14.00,2013-05-01 16:09:00,
2013-05-01 11:14:00,76.8,55.1,30.04,SSE,152,5.0,9.0,47,0.00,,---,0.00,VWS V14.00,2013-05-01 16:14:00,
2013-05-01 11:19:00,77.2,56.6,30.04,SSE,159,3.0,7.0,49,0.00,,---,0.00,VWS V14.00,2013-05-01 16:19:00,
2013-05-01 11:24:00,77.2,56.6,30.04,SSE,159,3.0,3.0,49,0.00,,---,0.00,VWS V14.00,2013-05-01 16:24:00,
2013-05-01 11:29:00,77.7,55.9,30.04,South,178,6.0,8.0,47,0.00,,---,0.00,VWS V14.00,2013-05-01 16:29:00,
2013-05-01 11:34:00,78.1,54.4,30.04,SSW,196,6.0,10.0,44,0.00,,---,0.00,VWS V14.00,2013-05-01 16:34:00,
2013-05-01 11:39:00,78.3,55.8,30.04,South,190,7.0,9.0,46,0.00,,---,0.00,VWS V14.00,2013-05-01 16:39:00,
2013-05-01 11:44:00,78.1,53.8,30.04,South,186,3.0,3.0,43,0.00,,---,0.00,VWS V14.00,2013-05-01 16:44:00,
2013-05-01 11:50:00,78.3,55.8,30.04,SSE,153,8.0,11.0,46,0.00,,---,0.00,VWS V14.00,2013-05-01 16:50:00,
2013-05-01 11:55:00,78.5,54.8,30.04,SSE,152,1.0,4.0,44,0.00,,---,0.00,VWS V14.00,2013-05-01 16:55:00,
2013-05-01 12:00:00,79.0,58.8,30.04,SSE,153,5.0,7.0,50,0.00,,---,0.00,VWS V14.00,2013-05-01 17:00:00,
2013-05-01 12:05:00,79.0,52.6,30.04,South,184,0.0,1.0,40,0.00,,---,0.00,VWS V14.00,2013-05-01 17:05:00,
2013-05-01 12:10:00,79.2,53.5,30.03,SSW,205,10.0,12.0,41,0.00,,---,0.00,VWS V14.00,2013-05-01 17:10:00,
2013-05-01 12:15:00,78.6,50.9,30.03,SSW,198,3.0,5.0,38,0.00,,---,0.00,VWS V14.00,2013-05-01 17:15:00,
2013-05-01 12:20:00,78.8,51.8,30.03,South,175,2.0,7.0,39,0.00,,---,0.00,VWS V14.00,2013-05-01 17:20:00,
2013-05-01 12:25:00,78.6,52.3,30.03,SSE,161,3.0,4.0,40,0.00,,---,0.00,VWS V14.00,2013-05-01 17:25:00,
2013-05-01 12:30:00,79.2,53.5,30.03,SSE,156,9.0,10.0,41,0.00,,---,0.00,VWS V14.00,2013-05-01 17:30:00,
2013-05-01 12:35:00,79.4,54.3,30.03,South,183,6.0,10.0,42,0.00,,---,0.00,VWS V14.00,2013-05-01 17:35:00,
2013-05-01 12:40:00,79.6,53.8,30.03,SSW,205,9.0,9.0,41,0.00,,---,0.00,VWS V14.00,2013-05-01 17:40:00,
2013-05-01 12:45:00,80.1,53.6,30.03,South,188,4.0,8.0,40,0.00,,---,0.00,VWS V14.00,2013-05-01 17:45:00,
2013-05-01 12:50:00,80.3,51.7,30.03,SW,219,8.0,13.0,37,0.00,,---,0.00,VWS V14.00,2013-05-01 17:50:00,
2013-05-01 12:55:00,79.8,52.0,30.03,South,175,6.0,10.0,38,0.00,,---,0.00,VWS V14.00,2013-05-01 17:55:00,
2013-05-01 13:00:00,80.3,55.1,30.03,SSE,159,7.0,10.0,42,0.00,,---,0.00,VWS V14.00,2013-05-01 18:00:00,
2013-05-01 13:05:00,79.9,52.8,30.03,ESE,112,8.0,13.0,39,0.00,,---,0.00,VWS V14.00,2013-05-01 18:05:00,
2013-05-01 13:11:00,80.3,55.1,30.03,SSE,157,11.0,13.0,42,0.00,,---,0.00,VWS V14.00,2013-05-01 18:11:00,
2013-05-01 13:16:00,80.3,52.4,30.03,SSE,150,3.0,5.0,38,0.00,,---,0.00,VWS V14.00,2013-05-01 18:16:00,
2013-05-01 13:21:00,80.7,52.0,30.03,SSE,159,6.0,12.0,37,0.00,,---,0.00,VWS V14.00,2013-05-01 18:21:00,
2013-05-01 13:26:00,81.1,52.4,30.03,SSE,153,10.0,13.0,37,0.00,,---,0.00,VWS V14.00,2013-05-01 18:26:00,
2013-05-01 13:31:00,80.5,52.6,30.03,South,176,5.0,9.0,38,0.00,,---,0.00,VWS V14.00,2013-05-01 18:31:00,
2013-05-01 13:36:00,80.9,52.2,30.03,SE,129,12.0,13.0,37,0.00,,---,0.00,VWS V14.00,2013-05-01 18:36:00,
2013-05-01 13:41:00,80.9,52.2,30.03,SSE,150,8.0,13.0,37,0.00,,---,0.00,VWS V14.00,2013-05-01 18:41:00,
2013-05-01 13:46:00,81.4,54.1,30.03,ESE,110,13.0,16.0,39,0.00,,---,0.00,VWS V14.00,2013-05-01 18:46:00,
2013-05-01 13:51:00,81.2,51.0,30.03,SSE,165,5.0,10.0,35,0.00,,---,0.00,VWS V14.00,2013-05-01 18:51:00,
2013-05-01 13:56:00,81.1,53.1,30.03,SSE,152,6.0,7.0,38,0.00,,---,0.00,VWS V14.00,2013-05-01 18:56:00,
2013-05-01 14:01:00,81.6,52.1,30.03,South,188,12.0,13.0,36,0.00,,---,0.00,VWS V14.00,2013-05-01 19:01:00,
2013-05-01 14:06:00,81.8,53.0,30.02,SSE,158,11.0,14.0,37,0.00,,---,0.00,VWS V14.00,2013-05-01 19:06:00,
2013-05-01 14:11:00,81.6,52.8,30.02,SSE,158,12.0,15.0,37,0.00,,---,0.00,VWS V14.00,2013-05-01 19:11:00,
2013-05-01 14:16:00,81.8,49.1,30.02,ESE,122,13.0,14.0,32,0.00,,---,0.00,VWS V14.00,2013-05-01 19:16:00,
2013-05-01 14:22:00,81.2,50.2,30.03,SSW,192,7.0,13.0,34,0.00,,---,0.00,VWS V14.00,2013-05-01 19:22:00,
2013-05-01 14:27:00,81.6,50.5,30.03,SSE,164,11.0,18.0,34,0.00,,---,0.00,VWS V14.00,2013-05-01 19:27:00,
2013-05-01 14:32:00,81.8,49.1,30.03,SSE,157,7.0,11.0,32,0.00,,---,0.00,VWS V14.00,2013-05-01 19:32:00,
2013-05-01 14:37:00,81.8,51.5,30.03,SSE,166,11.0,15.0,35,0.00,,---,0.00,VWS V14.00,2013-05-01 19:37:00,
2013-05-01 14:42:00,81.8,49.1,30.03,SSE,165,6.0,10.0,32,0.00,,---,0.00,VWS V14.00,2013-05-01 19:42:00,
2013-05-01 14:47:00,81.6,51.3,30.03,South,169,10.0,15.0,35,0.00,,---,0.00,VWS V14.00,2013-05-01 19:47:00,
2013-05-01 14:52:00,81.2,51.0,30.03,ESE,121,12.0,12.0,35,0.00,,---,0.00,VWS V14.00,2013-05-01 19:52:00,
2013-05-01 14:57:00,81.8,50.7,30.03,SSE,148,5.0,14.0,34,0.00,,---,0.00,VWS V14.00,2013-05-01 19:57:00,
2013-05-01 15:02:00,81.6,53.6,30.03,SE,132,10.0,15.0,38,0.00,,---,0.00,VWS V14.00,2013-05-01 20:02:00,
2013-05-01 15:08:00,81.4,52.7,30.03,SE,128,14.0,14.0,37,0.00,,---,0.00,VWS V14.00,2013-05-01 20:08:00,
2013-05-01 15:13:00,81.2,54.6,30.03,SSE,163,11.0,15.0,40,0.00,,---,0.00,VWS V14.00,2013-05-01 20:13:00,
2013-05-01 15:18:00,81.1,53.8,30.03,ESE,115,11.0,13.0,39,0.00,,---,0.00,VWS V14.00,2013-05-01 20:18:00,
2013-05-01 15:23:00,81.6,52.1,30.03,SSE,148,14.0,16.0,36,0.00,,---,0.00,VWS V14.00,2013-05-01 20:23:00,
2013-05-01 15:28:00,81.6,53.6,30.03,SSE,167,10.0,10.0,38,0.00,,---,0.00,VWS V14.00,2013-05-01 20:28:00,
2013-05-01 15:33:00,81.2,53.9,30.03,SSE,167,11.0,13.0,39,0.00,,---,0.00,VWS V14.00,2013-05-01 20:33:00,
2013-05-01 15:38:00,80.9,52.2,30.04,SE,138,9.0,11.0,37,0.00,,---,0.00,VWS V14.00,2013-05-01 20:38:00,
2013-05-01 15:43:00,80.9,52.2,30.04,SE,138,9.0,9.0,37,0.00,,---,0.00,VWS V14.00,2013-05-01 20:43:00,
2013-05-01 15:48:00,81.6,51.3,30.04,ESE,119,10.0,14.0,35,0.00,,---,0.00,VWS V14.00,2013-05-01 20:48:00,
2013-05-01 15:53:00,81.1,51.7,30.04,SSE,167,10.0,11.0,36,0.00,,---,0.00,VWS V14.00,2013-05-01 20:53:00,
2013-05-01 15:58:00,80.9,52.9,30.04,SSE,151,12.0,14.0,38,0.00,,---,0.00,VWS V14.00,2013-05-01 20:58:00,
2013-05-01 16:03:00,81.2,52.5,30.04,SSE,159,14.0,17.0,37,0.00,,---,0.00,VWS V14.00,2013-05-01 21:03:00,
2013-05-01 16:08:00,81.2,51.0,30.03,SSE,148,11.0,13.0,35,0.00,,---,0.00,VWS V14.00,2013-05-01 21:08:00,
2013-05-01 16:14:00,81.2,49.4,30.03,SE,140,14.0,14.0,33,0.00,,---,0.00,VWS V14.00,2013-05-01 21:14:00,
2013-05-01 16:19:00,81.8,51.5,30.03,SE,138,15.0,16.0,35,0.00,,---,0.00,VWS V14.00,2013-05-01 21:19:00,
2013-05-01 16:24:00,81.6,51.3,30.04,SE,144,13.0,13.0,35,0.00,,---,0.00,VWS V14.00,2013-05-01 21:24:00,
2013-05-01 16:29:00,81.1,50.1,30.04,SE,137,11.0,15.0,34,0.00,,---,0.00,VWS V14.00,2013-05-01 21:29:00,
2013-05-01 16:34:00,81.6,51.3,30.04,ESE,122,11.0,11.0,35,0.00,,---,0.00,VWS V14.00,2013-05-01 21:34:00,
2013-05-01 16:39:00,82.0,54.6,30.03,SSE,157,12.0,15.0,39,0.00,,---,0.00,VWS V14.00,2013-05-01 21:39:00,
2013-05-01 16:44:00,81.4,52.7,30.03,SSE,162,9.0,12.0,37,0.00,,---,0.00,VWS V14.00,2013-05-01 21:44:00,
2013-05-01 16:49:00,80.7,52.0,30.03,SE,142,11.0,15.0,37,0.00,,---,0.00,VWS V14.00,2013-05-01 21:49:00,
2013-05-01 16:54:00,80.1,50.0,30.04,SE,141,14.0,17.0,35,0.00,,---,0.00,VWS V14.00,2013-05-01 21:54:00,
2013-05-01 16:59:00,80.9,48.3,30.04,SE,145,17.0,19.0,32,0.00,,---,0.00,VWS V14.00,2013-05-01 21:59:00,
2013-05-01 17:04:00,80.9,45.7,30.04,SE,136,11.0,15.0,29,0.00,,---,0.00,VWS V14.00,2013-05-01 22:04:00,
2013-05-01 17:09:00,80.9,45.7,30.03,SSE,163,9.0,12.0,29,0.00,,---,0.00,VWS V14.00,2013-05-01 22:09:00,
2013-05-01 17:14:00,80.7,51.3,30.03,SSE,153,14.0,14.0,36,0.00,,---,0.00,VWS V14.00,2013-05-01 22:14:00,
2013-05-01 17:20:00,80.3,50.9,30.03,SE,140,16.0,16.0,36,0.00,,---,0.00,VWS V14.00,2013-05-01 22:20:00,
2013-05-01 17:25:00,80.1,50.0,30.03,SE,137,16.0,18.0,35,0.00,,---,0.00,VWS V14.00,2013-05-01 22:25:00,
2013-05-01 17:30:00,79.9,51.3,30.03,SE,143,13.0,14.0,37,0.00,,---,0.00,VWS V14.00,2013-05-01 22:30:00,
2013-05-01 17:35:00,80.1,50.8,30.03,SE,130,12.0,18.0,36,0.00,,---,0.00,VWS V14.00,2013-05-01 22:35:00,
2013-05-01 17:40:00,79.9,52.0,30.03,SSE,153,10.0,11.0,38,0.00,,---,0.00,VWS V14.00,2013-05-01 22:40:00,
2013-05-01 17:45:00,79.9,50.6,30.03,SSE,147,9.0,9.0,36,0.00,,---,0.00,VWS V14.00,2013-05-01 22:45:00,
2013-05-01 17:50:00,79.8,51.2,30.03,SE,135,13.0,13.0,37,0.00,,---,0.00,VWS V14.00,2013-05-01 22:50:00,
2013-05-01 17:55:00,79.4,51.6,30.03,ESE,118,13.0,15.0,38,0.00,,---,0.00,VWS V14.00,2013-05-01 22:55:00,
2013-05-01 18:00:00,79.2,52.1,30.03,SE,131,16.0,16.0,39,0.00,,---,0.00,VWS V14.00,2013-05-01 23:00:00,
2013-05-01 18:05:00,78.6,52.3,30.03,SE,128,13.0,16.0,40,0.00,,---,0.00,VWS V14.00,2013-05-01 23:05:00,
2013-05-01 18:10:00,78.5,51.5,30.03,ESE,119,11.0,13.0,39,0.00,,---,0.00,VWS V14.00,2013-05-01 23:10:00,
2013-05-01 18:15:00,78.3,51.3,30.03,SE,127,9.0,14.0,39,0.00,,---,0.00,VWS V14.00,2013-05-01 23:15:00,
2013-05-01 18:20:00,78.1,52.5,30.03,SE,135,13.0,13.0,41,0.00,,---,0.00,VWS V14.00,2013-05-01 23:20:00,
2013-05-01 18:26:00,77.9,53.6,30.03,SE,130,9.0,12.0,43,0.00,,---,0.00,VWS V14.00,2013-05-01 23:26:00,
2013-05-01 18:31:00,77.9,53.0,30.03,SE,132,13.0,13.0,42,0.00,,---,0.00,VWS V14.00,2013-05-01 23:31:00,
2013-05-01 18:36:00,77.6,52.7,30.03,SE,125,12.0,12.0,42,0.00,,---,0.00,VWS V14.00,2013-05-01 23:36:00,
2013-05-01 18:41:00,77.0,53.4,30.03,SE,126,7.0,10.0,44,0.00,,---,0.00,VWS V14.00,2013-05-01 23:41:00,
2013-05-01 18:46:00,76.8,52.6,30.03,SE,125,9.0,13.0,43,0.00,,---,0.00,VWS V14.00,2013-05-01 23:46:00,
2013-05-01 18:51:00,76.7,52.5,30.03,SE,126,5.0,5.0,43,0.00,,---,0.00,VWS V14.00,2013-05-01 23:51:00,
2013-05-01 18:56:00,76.7,52.5,30.03,SE,126,5.0,5.0,43,0.00,,---,0.00,VWS V14.00,2013-05-01 23:56:00,
2013-05-01 19:01:00,76.0,53.8,30.03,SE,125,6.0,10.0,46,0.00,,---,0.00,VWS V14.00,2013-05-02 00:01:00,
2013-05-01 19:06:00,75.4,53.8,30.03,ESE,123,6.0,9.0,47,0.00,,---,0.00,VWS V14.00,2013-05-02 00:06:00,
2013-05-01 19:12:00,75.1,54.1,30.03,ESE,121,8.0,8.0,48,0.00,,---,0.00,VWS V14.00,2013-05-02 00:12:00,
2013-05-01 19:17:00,74.7,54.3,30.03,ESE,121,7.0,8.0,49,0.00,,---,0.00,VWS V14.00,2013-05-02 00:17:00,
2013-05-01 19:22:00,74.2,54.4,30.03,ESE,121,6.0,7.0,50,0.00,,---,0.00,VWS V14.00,2013-05-02 00:22:00,
2013-05-01 19:27:00,73.7,54.5,30.03,ESE,121,5.0,9.0,51,0.00,,---,0.00,VWS V14.00,2013-05-02 00:27:00,
2013-05-01 19:32:00,73.3,54.1,30.03,ESE,121,5.0,7.0,51,0.00,,---,0.00,VWS V14.00,2013-05-02 00:32:00,
2013-05-01 19:37:00,73.0,54.4,30.03,ESE,121,6.0,6.0,52,0.00,,---,0.00,VWS V14.00,2013-05-02 00:37:00,
2013-05-01 19:42:00,72.5,54.4,30.03,ESE,121,5.0,6.0,53,0.00,,---,0.00,VWS V14.00,2013-05-02 00:42:00,
2013-05-01 19:47:00,72.1,54.0,30.03,ESE,121,5.0,6.0,53,0.00,,---,0.00,VWS V14.00,2013-05-02 00:47:00,
2013-05-01 19:52:00,71.6,54.1,30.04,ESE,121,5.0,6.0,54,0.00,,---,0.00,VWS V14.00,2013-05-02 00:52:00,
2013-05-01 19:57:00,71.3,54.3,30.04,ESE,121,4.0,4.0,55,0.00,,---,0.00,VWS V14.00,2013-05-02 00:57:00,
2013-05-01 20:02:00,70.9,54.4,30.04,ESE,121,4.0,4.0,56,0.00,,---,0.00,VWS V14.00,2013-05-02 01:02:00,
2013-05-01 20:07:00,70.3,54.4,30.04,ESE,121,4.0,5.0,57,0.00,,---,0.00,VWS V14.00,2013-05-02 01:07:00,
2013-05-01 20:12:00,69.9,54.5,30.04,ESE,121,5.0,5.0,58,0.00,,---,0.00,VWS V14.00,2013-05-02 01:12:00,
2013-05-01 20:18:00,69.8,54.8,30.04,ESE,121,3.0,5.0,59,0.00,,---,0.00,VWS V14.00,2013-05-02 01:18:00,